Track FORMOSAT 3B now! 10-day predictions FORMOSAT 3B is classified as:
1 29048U 06011B 22183.56892561 .00000148 00000-0 74175-4 0 9990 2 29048 71.9671 298.9745 0043547 178.2889 181.8405 14.28951624850198